Maun, Botswana

1:35 AM CAT on February 10, 2016 (GMT +0200)
Maun

Weather History for FBMN - August, 2013

Change the Weather History Date:

Thursday, August 8, 2013

  Actual Average Record
Temperature  
Mean Temperature 70 °F -  
Max Temperature 84 °F 84 °F 87 °F (2004)
Min Temperature 55 °F 55 °F 33 °F (2012)
Cooling Degree Days 4    
Growing Degree Days 20 (Base 50)    
Moisture  
Dew Point 33 °F    
Average Humidity 27    
Maximum Humidity 47    
Minimum Humidity 8    
Precipitation  
Precipitation 0.00 in - - ()
Sea Level Pressure  
Sea Level Pressure 29.98 in    
Wind  
Wind Speed 6 mph ()    
Max Wind Speed 16 mph    
Max Gust Speed -    
Visibility 6.1 miles    
Events      
Averages and records for this station are not official NWS values.
T = Trace of Precipitation, MM = Missing Value Source: Averaged Metar Reports

Daily Weather History Graph

Daily Weather History Graph

Search for Another Location

Airport or City:

Trip Planner

Search our weather history database for the weather conditions in past years. The results will help you decide how hot, cold, wet, or windy it might be!

Date:

Astronomy

Aug. 08, 2013 Rise Set
Actual Time 6:52 AM CAT 6:11 PM CAT
Civil Twilight 6:29 AM CAT 6:34 PM CAT
Nautical Twilight 6:03 AM CAT 7:00 PM CAT
Astronomical Twilight 5:37 AM CAT 7:27 PM CAT
Moon 7:33 AM CAT (8/8) 7:37 PM CAT (8/8)
Length of Visible Light 12h 05m
Length of Day
11h 19m
New Moon, 2% of the Moon is Illuminated
Aug 8
New Moon
Aug 14
First Quarter
Aug 21
Full
Aug 28
Last Quarter
Sep 5
New

Hourly Weather History & Observations

Time (CAT) Temp. Dew Point Humidity Pressure Visibility Wind Dir Wind Speed Gust Speed Precip Events Conditions
12:00 AM 59.0 °F 33.8 °F 39% 30.01 in - East 4.6 mph - N/A   Clear
2:00 AM 57 °F 35 °F 32%  in 6 mi East 4.6 mph - -   Partly Cloudy
3:00 AM 57.2 °F 33.8 °F 41% 29.98 in - East 4.6 mph - N/A   Clear
5:00 AM 55.4 °F 32.0 °F 41% 29.98 in - NE 5.8 mph - N/A   Clear
6:00 AM 57.2 °F 35.6 °F 44% 29.98 in - NE 8.1 mph - N/A   Clear
7:00 AM 55.4 °F 35.6 °F 47% 29.98 in - Variable 2.3 mph - N/A   Clear
8:00 AM 60.8 °F 39.2 °F 45% 30.01 in - NNE 4.6 mph - N/A   Clear
9:00 AM 66.2 °F 41.0 °F 40% 30.04 in - NNE 6.9 mph - N/A   Clear
10:00 AM 73.4 °F 41.0 °F 31% 30.04 in - NNE 11.5 mph - N/A   Clear
11:00 AM 78.8 °F 41.0 °F 26% 30.04 in - NNE 16.1 mph - N/A   Clear
12:00 PM 82.4 °F 35.6 °F 19% 30.01 in - NNW 10.4 mph - N/A   Clear
1:00 PM 82.4 °F 33.8 °F 17% 29.98 in - NNE 16.1 mph - N/A   Clear
2:00 PM 84 °F 32 °F 8%  in 6 mi WNW 10.4 mph - -   Haze
2:00 PM 84.2 °F 32.0 °F 15% 29.95 in 6.2 mi WNW 10.4 mph - N/A   Partly Cloudy
3:00 PM 84.2 °F 30.2 °F 14% 29.95 in 6.2 mi North 6.9 mph - N/A   Partly Cloudy
4:00 PM 84.2 °F 28.4 °F 13% 29.92 in 6.2 mi NW 5.8 mph - N/A   Partly Cloudy
5:00 PM 84.2 °F 26.6 °F 12% 29.95 in 6.2 mi North 5.8 mph - N/A   Partly Cloudy
6:00 PM 80.6 °F 26.6 °F 14% 29.95 in - NNW 3.5 mph - N/A   Clear
7:00 PM 71.6 °F 30.2 °F 22% 29.95 in - Variable 1.2 mph - N/A   Clear
8:00 PM 67 °F 30 °F 15%  in 6 mi East 2.3 mph - -  
8:00 PM 68.0 °F 30.2 °F 24% 29.98 in - Variable 2.3 mph - N/A   Clear
9:00 PM 68.0 °F 32.0 °F 26% 30.01 in - East 4.6 mph - N/A   Clear